Content
SEND FEEDBACK

Daily
Averages
Monthly
Summary
Canada

VANCOUVER, BRITISH COLUMBIA


Home > North America > Canada > British Columbia
Elevation: 7 feet     Latitude: 49 11N     Longitude: 123 10W

WEATHER
 
SELECT A DAY
Number of Records: 249,332;   Date Range: 5/15/97 - 7/30/14
 
SHARE

PRINT THIS DATA

[ ← Previous Day ]
WEATHER ALMANAC - FEBRUARY 8, 2014
[ Next Day → ]
[ °C ]   °F
Weather ElementAverageHighLow
Temperature33.3 °F37.4 °F (2:35 pm)28.4 °F (6:35 am)
Dewpoint10.6 °F17.6 °F (6:15 pm)8.6 °F (12:35 am)
Humidity39 %48 % (6:15 pm)30 % (2:35 pm)
Barometer29.96 in30.07 in (10:35 am)29.88 in (4:55 pm)
Wind Speed7.8 mph13.8 mph (8:35 am)
Wind Gust26.5 mph (5:15 am)
Weather ElementAverage
Visibility10 mi
Wind DirectionNE (47.7 °)

Weather ElementTotal
Precipitation---
Heating Degree Days32.1 (Base 65)
Averaged from 71 records on February 8, 2014
WEATHER CONDITIONS BREAKOUT
WIND DIRECTION BREAKOUT
WEATHER BY HOUR - FEBRUARY 8, 2014
[ °C ]   °F
Local TimeTemperatureDewpointHumidityBarometerVisibilityWind DirectionWind SpeedGust SpeedPrecipitationEventsConditions
12:35 AM30.2 °F8.6 °F40 %29.90 in10.0 miNNE (30°)10.4 mph16.1 mphClear
12:55 AM30.2 °F8.6 °F40 %29.91 in10.0 miNE (40°)6.9 mphClear
1:15 AM32.0 °F8.6 °F38 %29.92 in10.0 miNE (50°)9.2 mphClear
1:35 AM32.0 °F8.6 °F38 %29.92 in10.0 miNE (40°)9.2 mphClear
1:55 AM30.2 °F8.6 °F40 %29.93 in10.0 miNE (40°)6.9 mph18.4 mphClear
2:15 AM30.2 °F8.6 °F40 %29.93 in10.0 miENE (60°)9.2 mph17.3 mphClear
2:35 AM30.2 °F8.6 °F40 %29.94 in10.0 miENE (60°)9.2 mph19.6 mphClear
2:55 AM30.2 °F8.6 °F40 %29.95 in10.0 miNE (50°)8.1 mphClear
3:15 AM30.2 °F8.6 °F40 %29.95 in10.0 miNE (50°)8.1 mph18.4 mphClear
3:35 AM30.2 °F8.6 °F40 %29.97 in10.0 miENE (70°)9.2 mph19.6 mphClear
3:55 AM30.2 °F8.6 °F40 %29.97 in10.0 miENE (60°)12.7 mph18.4 mphClear
4:15 AM30.2 °F8.6 °F40 %29.98 in10.0 miENE (70°)6.9 mph16.1 mphClear
4:35 AM30.2 °F8.6 °F40 %29.99 in10.0 miENE (60°)6.9 mph20.7 mphClear
4:55 AM30.2 °F10.4 °F44 %29.99 in10.0 miNE (40°)9.2 mph18.4 mphClear
5:15 AM30.2 °F8.6 °F40 %30.00 in10.0 miNE (50°)9.2 mph26.5 mphClear
5:35 AM30.2 °F8.6 °F40 %30.00 in10.0 miNE (50°)6.9 mph24.2 mphClear
5:55 AM30.2 °F10.4 °F44 %30.00 in10.0 miNE (50°)6.9 mph24.2 mphClear
6:15 AM30.2 °F10.4 °F44 %30.00 in10.0 miNE (40°)10.4 mph26.5 mphClear
6:35 AM28.4 °F8.6 °F43 %30.01 in10.0 miENE (60°)10.4 mph21.9 mphClear
6:55 AM28.4 °F8.6 °F43 %30.01 in10.0 miNE (50°)10.4 mph25.3 mphClear
7:15 AM28.4 °F8.6 °F43 %30.02 in10.0 miNE (50°)12.7 mph24.2 mphClear
7:35 AM28.4 °F10.4 °F47 %30.02 in10.0 miENE (60°)8.1 mphClear
7:55 AM28.4 °F10.4 °F47 %30.03 in10.0 miENE (60°)6.9 mph17.3 mphClear
8:20 AM28.4 °F10.4 °F47 %30.05 in10.0 miNE (50°)6.9 mph19.6 mphClear
8:35 AM28.4 °F10.4 °F47 %30.04 in10.0 miNE (50°)13.8 mph17.3 mphClear
8:55 AM30.2 °F10.4 °F44 %30.05 in10.0 miENE (70°)6.9 mphClear
9:15 AM32.0 °F12.2 °F44 %30.06 in10.0 miENE (70°)10.4 mph16.1 mphClear
9:35 AM32.0 °F10.4 °F41 %30.06 in10.0 miENE (60°)5.8 mphClear
9:55 AM32.0 °F10.4 °F41 %30.05 in10.0 miENE (60°)11.5 mph18.4 mphClear
10:15 AM32.0 °F10.4 °F41 %30.06 in10.0 miNE (40°)10.4 mph16.1 mphClear
10:35 AM32.0 °F10.4 °F41 %30.07 in10.0 miNE (50°)8.1 mphClear
10:55 AM32.0 °F10.4 °F41 %30.07 in10.0 miENE (60°)4.6 mphClear
11:15 AM32.0 °F8.6 °F38 %30.07 in10.0 miNE (50°)11.5 mph17.3 mphClear
11:35 AM32.0 °F8.6 °F38 %30.06 in10.0 miENE (60°)6.9 mphClear
11:55 AM33.8 °F10.4 °F38 %30.05 in10.0 miENE (60°)5.8 mphClear
12:15 PM33.8 °F10.4 °F38 %30.04 in10.0 miNE (50°)9.2 mph16.1 mphClear
12:35 PM35.6 °F8.6 °F33 %30.03 in9.0 miENE (60°)5.8 mphClear
12:55 PM35.6 °F10.4 °F35 %30.01 in10.0 miENE (60°)10.4 mph17.3 mphClear
1:15 PM35.6 °F8.6 °F33 %30.01 in10.0 miENE (60°)11.5 mph20.7 mphClear
1:35 PM35.6 °F8.6 °F33 %30.00 in10.0 miNE (50°)9.2 mph19.6 mphClear
1:55 PM35.6 °F8.6 °F33 %29.98 in10.0 miNE (50°)10.4 mph17.3 mphClear
2:15 PM35.6 °F8.6 °F33 %29.97 in10.0 miNE (50°)10.4 mph17.3 mphClear
2:35 PM37.4 °F8.6 °F30 %29.96 in9.0 miENE (60°)8.1 mph21.9 mphClear
2:55 PM37.4 °F8.6 °F30 %29.94 in10.0 miNE (50°)8.1 mph18.4 mphClear
3:15 PM37.4 °F8.6 °F30 %29.93 in10.0 miNE (50°)11.5 mph18.4 mphClear
3:35 PM37.4 °F8.6 °F30 %29.93 in10.0 miNE (40°)8.1 mph18.4 mphClear
3:55 PM37.4 °F8.6 °F30 %29.91 in10.0 miNE (40°)8.1 mphClear
4:15 PM37.4 °F8.6 °F30 %29.89 in10.0 miNNE (30°)6.9 mphClear
4:40 PM37.4 °F8.6 °F30 %29.89 in10.0 miNNE (20°)8.1 mphClear
4:55 PM37.4 °F8.6 °F30 %29.88 in10.0 miNNE (30°)4.6 mphClear
5:15 PM37.4 °F10.4 °F33 %29.88 in10.0 miNNE (30°)4.6 mphClear
5:35 PM37.4 °F14.0 °F38 %29.88 in10.0 miNorth (10°)6.9 mphClear
5:55 PM35.6 °F15.8 °F44 %29.88 in10.0 miNorth (10°)4.6 mphClear
6:15 PM35.6 °F17.6 °F48 %29.89 in10.0 miNNE (20°)4.6 mphClear
6:35 PM35.6 °F14.0 °F41 %29.89 in10.0 miENE (60°)4.6 mphClear
6:55 PM35.6 °F15.8 °F44 %29.90 in10.0 miENE (60°)3.5 mphClear
7:15 PM35.6 °F15.8 °F44 %29.90 in10.0 miNE (50°)3.5 mphClear
7:35 PM35.6 °F14.0 °F41 %29.90 in10.0 miNE (40°)3.5 mphClear
7:55 PM35.6 °F14.0 °F41 %29.90 in10.0 miNNE (30°)4.6 mphClear
8:15 PM35.6 °F14.0 °F41 %29.90 in10.0 miNNE (30°)6.9 mphClear
8:35 PM37.4 °F14.0 °F38 %29.91 in10.0 miNE (40°)8.1 mphClear
8:55 PM35.6 °F14.0 °F41 %29.91 in10.0 miNNE (20°)6.9 mphClear
9:15 PM35.6 °F14.0 °F41 %29.91 in10.0 miNNE (20°)4.6 mphClear
9:35 PM35.6 °F14.0 °F41 %29.91 in10.0 miNE (50°)4.6 mphClear
9:55 PM35.6 °F14.0 °F41 %29.91 in10.0 miNNE (30°)6.9 mphClear
10:15 PM35.6 °F12.2 °F38 %29.92 in10.0 miENE (60°)5.8 mphClear
10:35 PM35.6 °F12.2 °F38 %29.92 in10.0 miEast (80°)5.8 mphClear
10:55 PM35.6 °F10.4 °F35 %29.93 in10.0 miENE (60°)6.9 mphMostly Cloudy
11:15 PM35.6 °F12.2 °F38 %29.93 in10.0 miNE (40°)6.9 mphMostly Cloudy
11:40 PM35.6 °F12.2 °F38 %29.94 in10.0 miNE (50°)6.9 mphMostly Cloudy
11:55 PM35.6 °F12.2 °F38 %29.94 in10.0 miNNE (30°)4.6 mphOvercast
Hourly data recorded from CZBB, located miles away from Vancouver, British Columbia







STORIES FROM OUR PARTNERS